Location: C�mpuri de-Sus
(45.9500°N, 22.5500°E)
Time: 01:33:01
(UTC+00:00)

Cosmos 839 Rocket - Pass Details

Date: 29 May 2022
Orbit: 968 x 2085 km, 65.9° (Epoch: 06 July)

Event Time Altitude Azimuth Distance (km) Brightness Sun altitude
Rises 19:49:18 0° 323° (NW) 3,670 9.1 -13.4°
Reaches altitude 10° 19:52:49 10° 343° (NNW) 2,727 7.5 -13.8°
Maximum altitude 19:56:52 17° 25° (NNE) 2,286 6.3 -14.2°
Drops below altitude 10° 20:01:07 10° 65° (ENE) 2,901 6.4 -14.7°
Sets 20:05:01 0° 85° (E) 4,009 6.9 -15.0°
